Location: Coors Field
(39.7564°N, 104.9943°W)
Time: 12:09:29
(UTC-06:00)

ISS - Visible Passes

Search period start: 21 September 2014 00:00
Search period end: 01 October 2014 00:00
Orbit: 413 x 417 km, 51.6° (Epoch: 21 September)

Date Brightness Start Highest point End Pass type
(mag) Time Alt. Az. Time Alt. Az. Time Alt. Az.
21 Sep -0.6 05:14:10 10° NNW 05:15:15 11° N 05:16:25 10° NNE visible
22 Sep -0.2 04:27:14 11° N 04:27:14 11° N 04:27:42 10° NNE visible
22 Sep -0.5 06:02:38 10° NNW 06:03:55 12° N 06:05:12 10° NNE visible
23 Sep -0.4 05:13:47 10° NNW 05:14:41 11° N 05:15:35 10° NNE visible
24 Sep -0.1 04:26:12 10° NNE 04:26:12 10° NNE 04:26:17 10° NNE visible
24 Sep -0.7 06:01:02 10° NNW 06:03:12 16° NNE 06:05:21 10° ENE visible
25 Sep -0.5 05:12:16 10° NNW 05:13:56 13° NNE 05:15:36 10° NE visible
26 Sep -0.1 04:25:12 11° NNE 04:25:12 11° NNE 04:25:47 10° NNE visible
26 Sep -1.4 05:59:17 10° NNW 06:02:11 27° NNE 06:05:04 10° E visible
27 Sep -0.9 05:11:13 14° NNW 05:12:56 20° NNE 05:15:26 10° ENE visible
28 Sep -0.2 04:24:25 14° NE 04:24:25 14° NE 04:25:38 10° NE visible
28 Sep -2.9 05:57:31 10° NW 06:00:49 62° NE 06:04:06 10° ESE visible
29 Sep -1.9 05:10:37 29° N 05:11:36 37° NNE 05:14:43 10° E visible
30 Sep -0.3 04:24:02 16° ENE 04:24:02 16° ENE 04:25:06 10° E visible
30 Sep -2.9 05:56:56 18° WNW 05:59:06 44° SW 06:02:16 10° SSE visible
